Location: ????????
(55.5667°N, 37.5833°E)
Time: 21:00:20
(UTC+00:00)

COSMOS 2455 - Pass Details

Date: 14 April 2026
Orbit: 901 x 907 km, 67.1° (Epoch: 16 May)

Event Time Altitude Azimuth Distance (km) Brightness Sun altitude
Rises 17:30:22 0° 297° (WNW) 3,542 8.5 -8.2°
Reaches altitude 10° 17:33:16 10° 309° (NW) 2,600 6.9 -8.5°
Maximum altitude 17:38:25 28° 8° (N) 1,637 4.5 -9.1°
Drops below altitude 10° 17:43:34 10° 66° (ENE) 2,598 4.9 -9.8°
Enters shadow 17:46:18 - 78° (ENE) 3,487 5.5 -10.1°
